Regional Weather Roundup
Issued by NWS

Home | Current Version | Previous Version | Graphics & Text | Print | Product List | Glossary On
Versions: 1 2 3 4 5 6 7 8 9 10 11 12 13 14 15 16 17 18 19 20 21 22 23 24 25 26 27 28 29 30 31 32 33 34 35 36 37 38 39 40 41 42 43 44 45 46 47 48 49 50
000
ASUS43 KLMK 310702
RWRKY
KENTUCKY REGIONAL WEATHER ROUNDUP
NATIONAL WEATHER SERVICE LOUISVILLE KY
300 AM EDT TUE MAY 31 2016

NOTE "FAIR" INDICATES FEW OR NO CLOUDS BELOW 12,000 FEET
WITH NO SIGNIFICANT WEATHER AND/OR OBSTRUCTIONS TO VISIBILITY.

KYZ001>023-026-027-061>063-070>075-310800-
WESTERN AND SOUTH CENTRAL KENTUCKY

CITY           SKY/WX    TMP DP  RH WIND       PRES   REMARKS
PADUCAH        MOCLDY    66  62  87 CALM      29.94F
HENDERSON      CLOUDY    66  61  82 CALM      29.95S
OWENSBORO      MOCLDY    70  66  86 CALM      29.96F
HOPKINSVILLE   NOT AVBL
BOWLING GREEN  PTCLDY    66  62  87 CALM      29.96F
GLASGOW        NOT AVBL
$$

KYZ024-025-028>034-038-045-046-053-310800-
NORTH CENTRAL KENTUCKY

CITY           SKY/WX    TMP DP  RH WIND       PRES   REMARKS
LOUISVILLE/SDF PTCLDY    71  59  65 CALM      29.96F
LOUISVILLE/LOU CLEAR     68  60  75 CALM      29.97F
FORT KNOX      NOT AVBL
$$

KYZ035>037-039>044-047>052-055>060-089>105-310800-
NORTHEAST KENTUCKY

CITY           SKY/WX    TMP DP  RH WIND       PRES   REMARKS
LEXINGTON      CLEAR     64  59  83 CALM      30.00S
COVINGTON      MOCLDY    66  59  78 S3        29.99F
FRANKFORT      CLEAR     62  58  86 CALM      29.97F
$$

KYZ054-064>069-076>088-106>120-310800-
SOUTHEAST KENTUCKY

CITY           SKY/WX    TMP DP  RH WIND       PRES   REMARKS
JACKSON        CLEAR     68  58  70 CALM      30.00F
LONDON         PTCLDY    63  59  87 CALM      29.99F
SOMERSET       NOT AVBL
MIDDLESBORO    CLEAR     61  61 100 CALM      30.01F
MONTICELLO     SUNNY     61  60  97 W10       30.01F
$$





USA.gov is the U.S. government's official web portal to all federal, state and local government web resources and services.